Погода в Правой Хаве

Россия / Воронежская область     51°43′26″N   39°47′03″E
темп.,
°C
ветер,
м/с
пор.,
м/с
влажн.,
%
обл.,
%
осадки,
мм/ч
давл.,
гПа
погр.,
м
20 апреля, вт
вт2000:00+8в511905 0.1 1016417
03:00+7всв5109290 0.1 1016346
06:00+8в5992100 0.1 1015542
09:00+7всв7108799 0.3 1013560
12:00+8в6986100 0.0 1013657
15:00+7в71087100 0.0 1012648
18:00+6всв81393100 3.1 1008570
21:00+6в81495100 8.3 1004511
21 апреля, ср
ср2100:00+6вюв4996100 4.1 1002355
03:00+9ю7149299 4.3 1002679
06:00+8ююв81388100 0.3 1002789
09:00+6з81091100 1.2 1006548
12:00+8зюз7980100 0.0 1010860
15:00+10юз5875100 0.1 10121076
18:00+9зюз3881100 0.1 1013672
21:00+7ююз49895 0.1 1015200
22 апреля, чт
чт2200:00+6ю369298 0.0 1016103
03:00+6ююз4108849 0.0 1017295
06:00+5юз35955 0.0 1019126
09:00+10зюз35705 0.0 1020616
12:00+13зюз35515 0.0 10201416
15:00+15юз4644100 0.0 10202171
18:00+13ююв356097 0.0 1020149
21:00+12юз346684 0.0 102179
23 апреля, пт
пт2300:00+9ююз337784 0.0 102142
03:00+9ю367595 0.0 1021103
06:00+9ю357764 0.0 102173
09:00+14ю475891 0.0 1021492
12:00+16ю4647100 0.0 10201906
15:00+17ююз574479 0.0 10191994
18:00+15ю585633 0.1 1018524
21:00+11ююв497323 0.1 1018155
24 апреля, сб
сб2400:00+9ююв410825 0.1 1016185
03:00+8ююв498743 0.1 1014172
06:00+9ююв388592 0.1 1013195
09:00+12ю61070100 0.4 1011759
12:00+13ююз81166100 0.9 10101564
15:00+6зсз7108197 4.4 1013924
18:00+9зсз510605 0.2 10131593
21:00+6зюз410720 0.2 1014286